Ontario, OR

6:11 AM MDT on August 17, 2017 (GMT -0600)
Ontario Municipal

Weather History for KONO - November, 2013

Change the Weather History Date:

Saturday, November 9, 2013

  Actual Average Record
Temperature  
Mean Temperature 41 °F 40 °F  
Max Temperature 53 °F 52 °F 66 °F (2016)
Min Temperature 28 °F 28 °F 11 °F (1952)
Degree Days  
Heating Degree Days 24 25  
Month to date heating degree days 225 211  
Since 1 July heating degree days 803 804  
Cooling Degree Days 0 0  
Month to date cooling degree days 0 0  
Year to date cooling degree days 1299 852  
Moisture  
Dew Point 33 °F    
Average Humidity 73    
Maximum Humidity 96    
Minimum Humidity 50    
Precipitation  
Precipitation 0.00 in 0.03 in 0.50 in (1970)
Month to date precipitation 0.18 0.30  
Year to date precipitation 4.21 7.58  
Sea Level Pressure  
Sea Level Pressure 30.23 in    
Wind  
Wind Speed 2 mph (West)    
Max Wind Speed 7 mph    
Max Gust Speed 8 mph    
Visibility 10 miles    
Events      
T = Trace of Precipitation, MM = Missing Value Source: NWS Daily Summary

Daily Weather History Graph

Daily Weather History Graph

Search for Another Location

Airport or City:

Trip Planner

Search our weather history database for the weather conditions in past years. The results will help you decide how hot, cold, wet, or windy it might be!

Date:

Astronomy

Nov. 09, 2013 Rise Set
Actual Time 7:35 AM MST 5:27 PM MST
Civil Twilight 7:04 AM MST 5:58 PM MST
Nautical Twilight 6:30 AM MST 6:32 PM MST
Astronomical Twilight 5:56 AM MST 7:06 PM MST
Moon 1:13 PM MST (11/9) No Moon Set
Length of Visible Light 10h 53m
Length of Day
9h 52m
Waxing Crescent, 45% of the Moon is Illuminated
Nov 9
Waxing Crescent
Nov 9
First Quarter
Nov 17
Full
Nov 25
Last Quarter
Dec 2
New

Hourly Weather History & Observations

Time (MST) Temp. Windchill Dew Point Humidity Pressure Visibility Wind Dir Wind Speed Gust Speed Precip Events Conditions
12:53 AM 37.0 °F - 33.1 °F 86% 30.19 in 10.0 mi Calm Calm - N/A   Clear
1:53 AM 34.0 °F 29.8 °F 32.0 °F 92% 30.20 in 10.0 mi West 4.6 mph - N/A   Clear
2:53 AM 34.0 °F 29.8 °F 32.0 °F 92% 30.21 in 10.0 mi WSW 4.6 mph - N/A   Clear
3:53 AM 34.0 °F - 30.0 °F 85% 30.22 in 10.0 mi Calm Calm - N/A   Clear
4:53 AM 32.0 °F - 28.9 °F 88% 30.22 in 10.0 mi Calm Calm - N/A   Clear
5:53 AM 28.9 °F - 27.0 °F 92% 30.25 in 10.0 mi Calm Calm - N/A   Clear
6:53 AM 30.0 °F - 28.0 °F 92% 30.25 in 10.0 mi Calm Calm - N/A   Clear
7:53 AM 30.0 °F - 28.9 °F 96% 30.26 in 10.0 mi Calm Calm - N/A   Clear
8:26 AM 30.0 °F - 28.0 °F 92% 30.23 in 9.0 mi Calm Calm - N/A   Scattered Clouds
8:53 AM 32.0 °F - 30.0 °F 92% 30.29 in 10.0 mi Calm Calm - N/A   Mostly Cloudy
9:02 AM 32.0 °F - 30.0 °F 92% 30.24 in 10.0 mi Calm Calm - N/A   Scattered Clouds
9:53 AM 37.9 °F - 33.1 °F 83% 30.28 in 10.0 mi Calm Calm - N/A   Clear
10:53 AM 41.0 °F - 34.0 °F 76% 30.28 in 10.0 mi Calm Calm - N/A   Clear
11:53 AM 46.0 °F - 33.1 °F 61% 30.26 in 10.0 mi Calm Calm - N/A   Clear
12:53 PM 48.9 °F - 34.0 °F 56% 30.25 in 10.0 mi Variable 3.5 mph - N/A   Clear
1:53 PM 51.1 °F - 34.0 °F 52% 30.22 in 10.0 mi Calm Calm - N/A   Clear
2:53 PM 52.0 °F - 34.0 °F 50% 30.21 in 10.0 mi North 3.5 mph - N/A   Clear
3:53 PM 52.0 °F - 34.0 °F 50% 30.21 in 7.0 mi Calm Calm - N/A   Clear
4:20 PM 52.0 °F - 34.0 °F 50% 30.17 in 4.0 mi Calm Calm - N/A   Haze
4:53 PM 51.1 °F - 36.0 °F 56% 30.20 in 10.0 mi West 3.5 mph - N/A   Clear
5:53 PM 46.9 °F - 36.0 °F 66% 30.22 in 10.0 mi Calm Calm - N/A   Clear
6:53 PM 45.0 °F - 37.0 °F 74% 30.22 in 10.0 mi Calm Calm - N/A   Partly Cloudy
7:53 PM 43.0 °F - 37.0 °F 80% 30.23 in 10.0 mi Calm Calm - N/A   Clear
8:53 PM 43.0 °F 41.3 °F 37.0 °F 80% 30.24 in 10.0 mi West 3.5 mph - N/A   Clear
9:53 PM 41.0 °F 38.0 °F 36.0 °F 82% 30.24 in 10.0 mi WSW 4.6 mph - N/A   Clear
10:53 PM 41.0 °F 38.0 °F 36.0 °F 82% 30.24 in 10.0 mi WSW 4.6 mph - N/A   Clear
11:53 PM 39.0 °F 35.7 °F 35.1 °F 86% 30.23 in 10.0 mi WSW 4.6 mph - N/A   Clear